STARLINK-5469 (55649 NORAD) Tracking and Keplerian Element Data

This shows tracking and keplerian element data for the satellite.

Feedback or suggestion? Click here.




ElementValue
Catalog55649
NameSTARLINK-5469
Epoch Orbit130
Epoch Day62.91667824
Epoch Year2023
RAAN110.1933
Inclination69.9998
Eccentricity0.0003529
Argument of Perigee282.2568
Mean Anonmoly318.1728
Mean Motion15.75091019
Decay Rate-0.0103522
L11 55649U 23021X 23062.91667824 -.01035220 00000+0 -76592-2 0 9998
L22 55649 69.9998 110.1933 0003529 282.2568 318.1728 15.75091019 1303



Live tracking and technical data element details for STARLINK-5469 (NORAD 55649). STARLINK-5469 can be tracked NOW for your location showing map with azimuth and elevation plus other details from your city location.







IsCatalogInMostPopularTable: catalog: 55649, numindb: 2
Update: records affected: 1



GetName: 55649 STARLINK-5469

Hit Count: updated at: Wed, 22 Mar 2023 17:19:02 GMT